Regional Weather Roundup
Issued by NWS

Home | Current Version | Previous Version | Text Only | Print | Product List | Glossary Off
Versions: 1 2 3 4 5 6 7 8 9 10 11 12 13 14 15 16 17 18 19 20 21 22 23 24 25 26 27 28 29 30 31 32 33 34 35 36 37 38 39 40 41 42 43 44 45 46 47 48 49 50

017
ASUS44 KLIX 290205
RWRLA
LOUISIANA WEATHER ROUNDUP
NATIONAL WEATHER SERVICE NEW ORLEANS LA
800 PM CST FRI NOV 28 2014

NOTE: "FAIR" INDICATES FEW OR NO CLOUDS BELOW 12,000 FEET WITH NO
      SIGNIFICANT WEATHER AND/OR OBSTRUCTIONS TO VISIBILITY.
      SKY/WX - SKY CONDITION AND SIGNIFICANT WEATHER.
      TMP - AIR TEMPERATURE.    DP   - DEWPOINT TEMPERATURE.
      RH  - RELATIVE HUMIDITY.  PRES - PRESSURE.
      HX  - HEAT INDEX.         WCI  - WIND CHILL INDEX.

*  THESE STATIONS ARE NOT NWS OR FAA STATIONS AND ARE NOT UNDER
   NWS QUALITY CONTROL.

LAZ040-048-061>063-065-066-069-290300-
SOUTHEAST LOUISIANA

CITY           SKY/WX    TMP DP  RH WIND       PRES   REMARKS
N.O. AUDUBON     N/A     53  47  81 MISG        N/A
N.O. INTL ARPT CLEAR     50  44  80 SE7       30.29F
N.O. LAKEFRONT CLEAR     50  43  77 SE6       30.31S
N.O. DOWNTOWN* FAIR      54  41  62 SE6       30.30S
SLIDELL        CLEAR     42  38  85 CALM      30.29F
BATON ROUGE    CLEAR     49  42  77 SE7       30.27S
BOOTHVILLE     CLEAR     52  50  93 CALM      30.31S
BELLE CHASSE   PTCLDY    44  41  89 CALM      30.30S
BOGALUSA*        N/A     48  38  70 S5        30.30S
NEW ROADS*     FAIR      52  37  58 SE8       30.26S
GONZALES*      FAIR      46  45  96 CALM      30.28S
HAMMOND*       CLEAR     45  41  87 S3        30.30S
HOUMA*         CLEAR     45  43  95 E5        30.29S
PORT FOURCHON* CLOUDY    61  52  72 SE8       30.32S

$$

LAZ041-044-053-054-290300-
SOUTHWEST LOUISIANA

CITY           SKY/WX    TMP DP  RH WIND       PRES   REMARKS
LAKE CHARLES   MOCLDY    54  52  93 SE7       30.22F
LAFAYETTE      CLEAR     54  48  80 SE6       30.25S
PATTERSON      CLEAR     52  45  76 SE5       30.30S
SALT POINT       N/A     56  49  77 SE7       30.26S
NEW IBERIA     CLEAR     52  47  83 SE9       30.26S
CHENAULT AIRPK NOT AVBL

$$

LAZ027-028-290300-
CENTRAL LOUISIANA

CITY           SKY/WX    TMP DP  RH WIND       PRES   REMARKS
FORT POLK      MOCLDY    54  52  94 S12       30.19F
ALEXANDRIA INT CLEAR     53  45  74 SE9       30.19F
ALEXANDRIA     CLEAR     52  44  74 S7        30.21S

$$

LAZ001-002-290300-
NORTHWEST LOUISIANA

CITY           SKY/WX    TMP DP  RH WIND       PRES   REMARKS
SHREVEPORT     PTCLDY    56  48  74 S9        30.11F
BARKSDALE AFB  CLEAR     56  47  71 S14       30.12F
DTN SHREVEPORT CLEAR     57  46  66 S12       30.12S

$$

LAZ014-016-290300-
NORTHEAST LOUISIANA

CITY           SKY/WX    TMP DP  RH WIND       PRES   REMARKS
MONROE         CLEAR     50  37  61 S7        30.18F
TALLULAH       CLEAR     48  33  56 S8        30.21F

$$




USA.gov is the U.S. government's official web portal to all federal, state and local government web resources and services.